| time (UTC) | temp C | wind direction | speed KPH | gust KPH | rain 1hr cm | rain 24hr cm | rain mn cm | humidity % | barometer mb |
| 20260506050907 | 1 | 45 | 0.0 | 0.0 | 0.00 | 0.00 | 0.00 | 94 | 1017.6 |
| 20260506050348 | 1 | 45 | 0.0 | 0.0 | 0.00 | 0.00 | 0.00 | 94 | 1017.6 |
| 20260506044749 | 1 | 45 | 0.0 | 0.0 | 0.00 | 0.00 | 0.00 | 94 | 1017.6 |
| 20260506043956 | 1 | 45 | 0.0 | 0.0 | 0.00 | 0.00 | 0.00 | 94 | 1017.6 |
| 20260506043437 | 0 | 45 | 0.0 | 0.0 | 0.00 | 0.00 | 0.00 | 94 | 1017.6 |
| 20260506042644 | 1 | 45 | 0.0 | 0.0 | 0.00 | 0.00 | 0.00 | 94 | 1017.7 |
| 20260506042124 | 1 | 45 | 0.0 | 0.0 | 0.00 | 0.00 | 0.00 | 93 | 1017.6 |
| 20260506041604 | 1 | 45 | 0.0 | 0.0 | 0.00 | 0.00 | 0.00 | 93 | 1017.6 |
| 20260506041045 | 1 | 45 | 0.0 | 0.0 | 0.00 | 0.00 | 0.00 | 93 | 1017.6 |
| 20260506040525 | 1 | 45 | 0.0 | 0.0 | 0.00 | 0.00 | 0.00 | 93 | 1017.6 |
| 20260506035731 | 1 | 45 | 1.6 | 1.6 | 0.00 | 0.00 | 0.00 | 93 | 1017.6 |
| 20260506035211 | 1 | 68 | 0.0 | 0.0 | 0.00 | 0.00 | 0.00 | 93 | 1017.6 |
| 20260506034418 | 1 | 68 | 0.0 | 0.0 | 0.00 | 0.00 | 0.00 | 93 | 1017.6 |
| 20260506033624 | 1 | 68 | 0.0 | 0.0 | 0.00 | 0.00 | 0.00 | 92 | 1017.7 |
| 20260506033105 | 2 | 68 | 0.0 | 0.0 | 0.00 | 0.00 | 0.00 | 92 | 1017.7 |
| 20260506032545 | 2 | 90 | 0.0 | 0.0 | 0.00 | 0.00 | 0.00 | 92 | 1017.7 |
| 20260506032026 | 1 | 90 | 0.0 | 0.0 | 0.00 | 0.00 | 0.00 | 92 | 1017.8 |
| 20260506031507 | 1 | 90 | 0.0 | 0.0 | 0.00 | 0.00 | 0.00 | 92 | 1017.8 |
| 20260506030947 | 1 | 90 | 0.0 | 0.0 | 0.00 | 0.00 | 0.00 | 91 | 1017.8 |
| 20260506030428 | 2 | 90 | 0.0 | 0.0 | 0.00 | 0.00 | 0.00 | 92 | 1017.8 |
| 20260506025908 | 2 | 90 | 0.0 | 0.0 | 0.00 | 0.00 | 0.00 | 92 | 1017.7 |
| 20260506025349 | 2 | 90 | 0.0 | 0.0 | 0.00 | 0.00 | 0.00 | 92 | 1017.7 |
| 20260506024829 | 2 | 90 | 0.0 | 0.0 | 0.00 | 0.00 | 0.00 | 92 | 1017.7 |
| 20260506024310 | 1 | 90 | 0.0 | 0.0 | 0.00 | 0.00 | 0.00 | 91 | 1017.8 |
| 20260506023750 | 1 | 90 | 0.0 | 0.0 | 0.00 | 0.00 | 0.00 | 91 | 1017.8 |
| 20260506023231 | 2 | 90 | 0.0 | 0.0 | 0.00 | 0.00 | 0.00 | 89 | 1017.8 |
| 20260506022711 | 2 | 90 | 0.0 | 0.0 | 0.00 | 0.00 | 0.00 | 89 | 1017.8 |
| 20260506022152 | 2 | 90 | 0.0 | 0.0 | 0.00 | 0.00 | 0.00 | 89 | 1017.8 |
| 20260506021632 | 3 | 90 | 0.0 | 0.0 | 0.00 | 0.00 | 0.00 | 89 | 1017.7 |
| 20260506021113 | 3 | 90 | 0.0 | 0.0 | 0.00 | 0.00 | 0.00 | 89 | 1017.8 |
| 20260506020553 | 3 | 90 | 0.0 | 0.0 | 0.00 | 0.00 | 0.00 | 89 | 1017.7 |
| 20260506020034 | 3 | 90 | 0.0 | 0.0 | 0.00 | 0.00 | 0.00 | 88 | 1017.8 |
| 20260506015514 | 3 | 90 | 0.0 | 0.0 | 0.00 | 0.00 | 0.00 | 88 | 1017.7 |
| 20260506014955 | 4 | 90 | 0.0 | 0.0 | 0.00 | 0.00 | 0.00 | 87 | 1017.8 |
| 20260506014435 | 4 | 90 | 0.0 | 0.0 | 0.00 | 0.00 | 0.00 | 86 | 1017.8 |
| 20260506013916 | 5 | 90 | 0.0 | 0.0 | 0.00 | 0.00 | 0.00 | 86 | 1017.8 |
| 20260506013357 | 5 | 90 | 3.2 | 3.2 | 0.00 | 0.00 | 0.00 | 86 | 1017.8 |
| 20260506012837 | 5 | 90 | 1.6 | 1.6 | 0.00 | 0.00 | 0.00 | 86 | 1017.8 |
| 20260506012317 | 5 | 68 | 0.0 | 0.0 | 0.00 | 0.00 | 0.00 | 86 | 1018.0 |
| 20260506011525 | 5 | 90 | 4.8 | 6.4 | 0.00 | 0.00 | 0.00 | 85 | 1017.9 |
| 20260506010731 | 5 | 112 | 8.0 | 8.0 | 0.00 | 0.00 | 0.00 | 86 | 1017.9 |
| 20260506010211 | 5 | 68 | 3.2 | 3.2 | 0.00 | 0.00 | 0.00 | 87 | 1017.9 |
| 20260506005652 | 5 | 90 | 4.8 | 4.8 | 0.00 | 0.00 | 0.00 | 87 | 1017.9 |
| 20260506005133 | 5 | 112 | 6.4 | 8.0 | 0.00 | 0.00 | 0.00 | 88 | 1017.8 |
| 20260506004613 | 5 | 68 | 4.8 | 4.8 | 0.00 | 0.00 | 0.00 | 87 | 1017.8 |
| 20260506004054 | 5 | 68 | 3.2 | 3.2 | 0.00 | 0.00 | 0.00 | 87 | 1017.9 |
| 20260506003534 | 6 | 68 | 4.8 | 4.8 | 0.00 | 0.00 | 0.00 | 87 | 1017.9 |
| 20260506002741 | 6 | 112 | 4.8 | 4.8 | 0.00 | 0.00 | 0.00 | 87 | 1017.9 |
| 20260506001948 | 6 | 112 | 4.8 | 6.4 | 0.00 | 0.00 | 0.00 | 87 | 1017.9 |
| 20260506001429 | 6 | 112 | 8.0 | 8.0 | 0.00 | 0.00 | 0.00 | 86 | 1017.9 |
| 20260506000909 | 6 | 112 | 6.4 | 6.4 | 0.00 | 0.00 | 0.00 | 87 | 1017.9 |
| 20260506000116 | 6 | 112 | 3.2 | 3.2 | 0.00 | 0.00 | 0.00 | 87 | 1017.9 |
| 20260505235556 | 6 | 90 | 4.8 | 4.8 | 0.00 | 0.00 | 0.00 | 86 | 1017.9 |
| 20260505235037 | 6 | 135 | 3.2 | 3.2 | 0.00 | 0.00 | 0.00 | 86 | 1018.0 |
| 20260505234518 | 6 | 90 | 3.2 | 3.2 | 0.00 | 0.00 | 0.00 | 86 | 1018.0 |
| 20260505233958 | 6 | 112 | 3.2 | 3.2 | 0.00 | 0.00 | 0.00 | 85 | 1017.9 |
| 20260505233204 | 6 | 112 | 3.2 | 3.2 | 0.00 | 0.00 | 0.00 | 85 | 1017.9 |
| 20260505232645 | 6 | 112 | 8.0 | 8.0 | 0.00 | 0.00 | 0.00 | 85 | 1017.9 |
| 20260505232126 | 6 | 112 | 1.6 | 1.6 | 0.00 | 0.00 | 0.00 | 84 | 1017.9 |
| 20260505231606 | 6 | 68 | 3.2 | 3.2 | 0.00 | 0.00 | 0.00 | 84 | 1017.9 |
| 20260505231047 | 6 | 112 | 8.0 | 8.0 | 0.00 | 0.00 | 0.00 | 84 | 1018.0 |
| 20260505230528 | 6 | 90 | 6.4 | 8.0 | 0.00 | 0.00 | 0.00 | 83 | 1018.0 |
| 20260505230008 | 6 | 90 | 4.8 | 8.0 | 0.00 | 0.00 | 0.00 | 83 | 1018.0 |
| 20260505225449 | 6 | 112 | 6.4 | 8.0 | 0.00 | 0.00 | 0.00 | 84 | 1018.0 |
| 20260505224422 | 7 | 112 | 8.0 | 8.0 | 0.00 | 0.00 | 0.00 | 83 | 1018.1 |
| 20260505223628 | 7 | 112 | 4.8 | 4.8 | 0.00 | 0.00 | 0.00 | 82 | 1018.1 |
| 20260505223109 | 7 | 68 | 6.4 | 8.0 | 0.00 | 0.00 | 0.00 | 83 | 1018.1 |
| 20260505222550 | 7 | 112 | 9.7 | 9.7 | 0.00 | 0.00 | 0.00 | 82 | 1018.2 |
| 20260505222030 | 7 | 112 | 4.8 | 4.8 | 0.00 | 0.00 | 0.00 | 83 | 1018.2 |
| 20260505221511 | 7 | 90 | 6.4 | 6.4 | 0.00 | 0.00 | 0.00 | 82 | 1018.2 |
| 20260505220952 | 7 | 90 | 8.0 | 8.0 | 0.00 | 0.00 | 0.00 | 82 | 1018.1 |
| 20260505220432 | 7 | 112 | 6.4 | 6.4 | 0.00 | 0.00 | 0.00 | 82 | 1018.1 |
| 20260505215913 | 7 | 112 | 6.4 | 8.0 | 0.00 | 0.00 | 0.00 | 83 | 1018.0 |
| 20260505215119 | 7 | 90 | 4.8 | 6.4 | 0.00 | 0.00 | 0.00 | 83 | 1018.0 |
| 20260505214600 | 7 | 90 | 4.8 | 4.8 | 0.00 | 0.00 | 0.00 | 83 | 1018.0 |
| 20260505214040 | 7 | 112 | 11.3 | 11.3 | 0.00 | 0.00 | 0.00 | 82 | 1018.1 |
| 20260505213521 | 7 | 112 | 9.7 | 11.3 | 0.00 | 0.00 | 0.00 | 81 | 1018.1 |
| 20260505213002 | 7 | 68 | 9.7 | 11.3 | 0.00 | 0.00 | 0.00 | 81 | 1018.1 |
| 20260505212443 | 7 | 90 | 6.4 | 6.4 | 0.00 | 0.00 | 0.00 | 82 | 1018.1 |
| 20260505211924 | 7 | 112 | 3.2 | 3.2 | 0.00 | 0.00 | 0.00 | 83 | 1018.1 |
| 20260505211404 | 7 | 112 | 8.0 | 8.0 | 0.00 | 0.00 | 0.00 | 83 | 1018.0 |
| 20260505210845 | 7 | 112 | 9.7 | 11.3 | 0.00 | 0.00 | 0.00 | 83 | 1018.0 |
| 20260505210326 | 7 | 112 | 12.9 | 14.5 | 0.00 | 0.00 | 0.00 | 83 | 1018.0 |
| 20260505205807 | 7 | 68 | 4.8 | 4.8 | 0.00 | 0.00 | 0.00 | 83 | 1018.0 |
| 20260505205247 | 7 | 90 | 12.9 | 12.9 | 0.00 | 0.00 | 0.00 | 83 | 1018.0 |
| 20260505204452 | 7 | 68 | 9.7 | 9.7 | 0.00 | 0.00 | 0.00 | 83 | 1018.0 |
| 20260505203933 | 7 | 90 | 14.5 | 14.5 | 0.00 | 0.00 | 0.00 | 84 | 1018.0 |
| 20260505203139 | 7 | 68 | 8.0 | 9.7 | 0.00 | 0.00 | 0.00 | 83 | 1018.0 |
| 20260505202619 | 7 | 112 | 9.7 | 9.7 | 0.00 | 0.00 | 0.00 | 82 | 1018.0 |
| 20260505202100 | 7 | 68 | 3.2 | 3.2 | 0.00 | 0.00 | 0.00 | 82 | 1018.0 |
| 20260505201541 | 7 | 112 | 8.0 | 8.0 | 0.00 | 0.00 | 0.00 | 82 | 1017.9 |
| 20260505201021 | 7 | 68 | 3.2 | 3.2 | 0.00 | 0.00 | 0.00 | 82 | 1017.8 |
| 20260505200502 | 7 | 90 | 12.9 | 12.9 | 0.00 | 0.00 | 0.00 | 82 | 1017.9 |
| 20260505195709 | 7 | 90 | 8.0 | 9.7 | 0.00 | 0.00 | 0.00 | 82 | 1017.8 |
| 20260505195149 | 7 | 135 | 9.7 | 9.7 | 0.00 | 0.00 | 0.00 | 82 | 1017.8 |
| 20260505194356 | 7 | 90 | 6.4 | 6.4 | 0.00 | 0.00 | 0.00 | 82 | 1017.7 |
| 20260505193837 | 7 | 68 | 11.3 | 12.9 | 0.00 | 0.00 | 0.00 | 82 | 1017.7 |
| 20260505193042 | 7 | 112 | 8.0 | 8.0 | 0.00 | 0.00 | 0.00 | 82 | 1017.6 |
| 20260505192523 | 7 | 112 | 8.0 | 8.0 | 0.00 | 0.00 | 0.00 | 82 | 1017.6 |
| 20260505192004 | 7 | 90 | 9.7 | 9.7 | 0.00 | 0.00 | 0.00 | 82 | 1017.6 |
| 20260505191444 | 7 | 112 | 3.2 | 3.2 | 0.00 | 0.00 | 0.00 | 82 | 1017.6 |
| 20260505190925 | 7 | 68 | 9.7 | 9.7 | 0.00 | 0.00 | 0.00 | 81 | 1017.5 |
| 20260505190406 | 7 | 112 | 8.0 | 8.0 | 0.00 | 0.00 | 0.00 | 81 | 1017.5 |
| 20260505185339 | 7 | 90 | 8.0 | 8.0 | 0.00 | 0.00 | 0.00 | 81 | 1017.4 |
| 20260505184820 | 7 | 112 | 9.7 | 9.7 | 0.00 | 0.00 | 0.00 | 81 | 1017.4 |
| 20260505184301 | 7 | 90 | 6.4 | 8.0 | 0.00 | 0.00 | 0.00 | 81 | 1017.4 |
| 20260505183742 | 7 | 45 | 12.9 | 16.1 | 0.00 | 0.00 | 0.00 | 81 | 1017.3 |
| 20260505183223 | 8 | 112 | 14.5 | 16.1 | 0.00 | 0.00 | 0.00 | 81 | 1017.3 |
| 20260505182704 | 8 | 112 | 11.3 | 12.9 | 0.00 | 0.00 | 0.00 | 81 | 1017.3 |
| 20260505182145 | 8 | 90 | 14.5 | 16.1 | 0.00 | 0.00 | 0.00 | 81 | 1017.1 |
| 20260505181351 | 8 | 68 | 12.9 | 16.1 | 0.00 | 0.00 | 0.00 | 83 | 1017.1 |
| 20260505180832 | 8 | 68 | 9.7 | 9.7 | 0.00 | 0.00 | 0.00 | 83 | 1017.1 |
| 20260505180313 | 8 | 90 | 9.7 | 9.7 | 0.00 | 0.00 | 0.00 | 82 | 1017.1 |
| 20260505175519 | 8 | 68 | 12.9 | 12.9 | 0.00 | 0.00 | 0.00 | 83 | 1017.1 |
| 20260505175001 | 8 | 68 | 9.7 | 9.7 | 0.00 | 0.00 | 0.00 | 83 | 1017.0 |
| 20260505174442 | 8 | 112 | 12.9 | 12.9 | 0.00 | 0.00 | 0.00 | 83 | 1017.0 |
| 20260505173922 | 8 | 68 | 8.0 | 8.0 | 0.00 | 0.00 | 0.00 | 82 | 1017.0 |
| 20260505173403 | 8 | 112 | 12.9 | 14.5 | 0.00 | 0.00 | 0.00 | 82 | 1017.1 |
| 20260505172844 | 8 | 68 | 9.7 | 11.3 | 0.00 | 0.00 | 0.00 | 82 | 1017.0 |
| 20260505172325 | 8 | 45 | 8.0 | 8.0 | 0.00 | 0.00 | 0.00 | 82 | 1017.0 |
| 20260505171805 | 9 | 112 | 14.5 | 16.1 | 0.00 | 0.00 | 0.00 | 81 | 1017.0 |
| 20260505171246 | 9 | 112 | 14.5 | 17.7 | 0.00 | 0.00 | 0.00 | 82 | 1017.1 |
| 20260505170453 | 9 | 68 | 14.5 | 16.1 | 0.00 | 0.00 | 0.00 | 81 | 1017.0 |
| 20260505165933 | 10 | 112 | 11.3 | 11.3 | 0.00 | 0.00 | 0.00 | 80 | 1016.9 |
| 20260505165140 | 10 | 68 | 9.7 | 9.7 | 0.00 | 0.00 | 0.00 | 80 | 1016.9 |
| 20260505164346 | 10 | 90 | 9.7 | 9.7 | 0.00 | 0.00 | 0.00 | 80 | 1016.8 |
| 20260505163825 | 10 | 68 | 12.9 | 12.9 | 0.00 | 0.00 | 0.00 | 80 | 1016.8 |
| 20260505163306 | 10 | 90 | 8.0 | 9.7 | 0.00 | 0.00 | 0.00 | 81 | 1016.7 |
| 20260505162511 | 10 | 112 | 8.0 | 8.0 | 0.00 | 0.00 | 0.00 | 81 | 1016.7 |
| 20260505161952 | 10 | 68 | 9.7 | 9.7 | 0.00 | 0.00 | 0.00 | 80 | 1016.7 |
| 20260505161432 | 10 | 112 | 9.7 | 9.7 | 0.00 | 0.00 | 0.00 | 80 | 1016.6 |
| 20260505160913 | 10 | 112 | 9.7 | 9.7 | 0.00 | 0.00 | 0.00 | 80 | 1016.6 |
| 20260505160354 | 10 | 112 | 8.0 | 8.0 | 0.00 | 0.00 | 0.00 | 80 | 1016.6 |
| 20260505153158 | 10 | 90 | 9.7 | 9.7 | 0.00 | 0.00 | 0.00 | 80 | 1016.5 |
| 20260505152639 | 10 | 90 | 12.9 | 12.9 | 0.00 | 0.00 | 0.00 | 79 | 1016.6 |
| 20260505152119 | 10 | 68 | 11.3 | 11.3 | 0.00 | 0.00 | 0.00 | 80 | 1016.6 |
| 20260505151600 | 10 | 90 | 8.0 | 8.0 | 0.00 | 0.00 | 0.00 | 81 | 1016.6 |
| 20260505150937 | 10 | 90 | 8.0 | 8.0 | 0.00 | 0.00 | 0.00 | 82 | 1016.5 |
| 20260505150418 | 10 | 68 | 11.3 | 12.9 | 0.00 | 0.00 | 0.00 | 82 | 1016.4 |
| 20260505124912 | 12 | 270 | 3.2 | 3.2 | 0.00 | 0.00 | 0.00 | 68 | 1015.9 |
| 20260505124353 | 13 | 292 | 3.2 | 3.2 | 0.00 | 0.00 | 0.00 | 68 | 1016.0 |
| 20260505123834 | 12 | 270 | 1.6 | 1.6 | 0.00 | 0.00 | 0.00 | 64 | 1016.0 |
| 20260505123041 | 12 | 270 | 0.0 | 0.0 | 0.00 | 0.00 | 0.00 | 66 | 1016.0 |
| 20260505122523 | 11 | 270 | 9.7 | 9.7 | 0.00 | 0.00 | 0.00 | 69 | 1016.1 |
| 20260505122004 | 11 | 292 | 3.2 | 3.2 | 0.00 | 0.00 | 0.00 | 71 | 1016.1 |
| 20260505121445 | 12 | 338 | 8.0 | 9.7 | 0.00 | 0.00 | 0.00 | 71 | 1016.2 |
| 20260505120653 | 12 | 248 | 3.2 | 3.2 | 0.00 | 0.00 | 0.00 | 68 | 1016.2 |
| 20260505120134 | 12 | 315 | 3.2 | 3.2 | 0.00 | 0.00 | 0.00 | 68 | 1016.1 |
| 20260505115615 | 12 | 248 | 9.7 | 9.7 | 0.00 | 0.00 | 0.00 | 69 | 1016.2 |
| 20260505115056 | 12 | 338 | 8.0 | 8.0 | 0.00 | 0.00 | 0.00 | 67 | 1016.2 |
| 20260505114538 | 12 | 225 | 6.4 | 8.0 | 0.00 | 0.00 | 0.00 | 69 | 1016.2 |
| 20260505114019 | 12 | 292 | 4.8 | 4.8 | 0.00 | 0.00 | 0.00 | 70 | 1016.2 |
| 20260505113500 | 11 | 180 | 0.0 | 0.0 | 0.00 | 0.00 | 0.00 | 67 | 1016.2 |
| 20260505112941 | 11 | 315 | 6.4 | 8.0 | 0.00 | 0.00 | 0.00 | 70 | 1016.3 |
| 20260505112423 | 11 | 292 | 3.2 | 3.2 | 0.00 | 0.00 | 0.00 | 71 | 1016.2 |
| 20260505111904 | 11 | 292 | 6.4 | 6.4 | 0.00 | 0.00 | 0.00 | 73 | 1016.3 |
| 20260505111345 | 11 | 338 | 3.2 | 3.2 | 0.00 | 0.00 | 0.00 | 75 | 1016.3 |
| 20260505110826 | 11 | 292 | 1.6 | 1.6 | 0.00 | 0.00 | 0.00 | 74 | 1016.3 |
| 20260505110307 | 11 | 292 | 3.2 | 3.2 | 0.00 | 0.00 | 0.00 | 73 | 1016.3 |
| 20260505101812 | 10 | 292 | 4.8 | 4.8 | 0.00 | 0.00 | 0.00 | 77 | 1016.5 |
| 20260505101253 | 10 | 292 | 3.2 | 3.2 | 0.00 | 0.00 | 0.00 | 76 | 1016.5 |
| 20260505100735 | 10 | 270 | 3.2 | 3.2 | 0.00 | 0.00 | 0.00 | 76 | 1016.5 |
| 20260505100216 | 10 | 292 | 3.2 | 8.0 | 0.00 | 0.00 | 0.00 | 76 | 1016.5 |
| 20260505095657 | 10 | 315 | 4.8 | 4.8 | 0.00 | 0.00 | 0.00 | 77 | 1016.4 |
| 20260505095139 | 10 | 292 | 9.7 | 9.7 | 0.00 | 0.00 | 0.00 | 77 | 1016.4 |
| 20260505094620 | 10 | 270 | 4.8 | 4.8 | 0.00 | 0.00 | 0.00 | 77 | 1016.5 |
| 20260505093554 | 10 | 292 | 9.7 | 9.7 | 0.00 | 0.00 | 0.00 | 76 | 1016.5 |
| 20260505093035 | 10 | 292 | 9.7 | 9.7 | 0.00 | 0.00 | 0.00 | 78 | 1016.5 |
| 20260505092517 | 10 | 338 | 8.0 | 8.0 | 0.00 | 0.00 | 0.00 | 79 | 1016.5 |
| 20260505091958 | 10 | 292 | 6.4 | 6.4 | 0.00 | 0.00 | 0.00 | 81 | 1016.5 |
| 20260505091440 | 10 | 270 | 9.7 | 9.7 | 0.00 | 0.00 | 0.00 | 82 | 1016.5 |
| 20260505090647 | 10 | 292 | 3.2 | 3.2 | 0.00 | 0.00 | 0.00 | 83 | 1016.6 |
| 20260505090129 | 10 | 248 | 8.0 | 8.0 | 0.00 | 0.00 | 0.00 | 83 | 1016.6 |
| 20260505085610 | 9 | 225 | 8.0 | 8.0 | 0.00 | 0.00 | 0.00 | 84 | 1016.6 |
| 20260505085051 | 9 | 270 | 6.4 | 6.4 | 0.00 | 0.00 | 0.00 | 85 | 1016.6 |
| 20260505084526 | 10 | 292 | 8.0 | 8.0 | 0.00 | 0.00 | 0.00 | 85 | 1016.6 |
| 20260505084007 | 10 | 270 | 3.2 | 3.2 | 0.00 | 0.00 | 0.00 | 84 | 1016.5 |
| 20260505083215 | 10 | 292 | 6.4 | 8.0 | 0.00 | 0.00 | 0.00 | 83 | 1016.6 |
| 20260505082656 | 10 | 270 | 4.8 | 4.8 | 0.00 | 0.00 | 0.00 | 84 | 1016.6 |
| 20260505082138 | 10 | 292 | 3.2 | 3.2 | 0.00 | 0.00 | 0.00 | 84 | 1016.7 |
| 20260505081619 | 9 | 292 | 6.4 | 6.4 | 0.00 | 0.00 | 0.00 | 84 | 1016.6 |
| 20260505080554 | 9 | 270 | 3.2 | 3.2 | 0.00 | 0.00 | 0.00 | 83 | 1016.6 |
| 20260505080035 | 9 | 248 | 9.7 | 9.7 | 0.00 | 0.00 | 0.00 | 84 | 1016.6 |
| 20260505075517 | 9 | 292 | 3.2 | 3.2 | 0.00 | 0.00 | 0.00 | 84 | 1016.6 |
| 20260505074958 | 9 | 338 | 6.4 | 6.4 | 0.00 | 0.00 | 0.00 | 85 | 1016.6 |
| 20260505074439 | 9 | 292 | 9.7 | 9.7 | 0.00 | 0.00 | 0.00 | 86 | 1016.5 |
| 20260505073412 | 8 | 225 | 8.0 | 8.0 | 0.00 | 0.00 | 0.00 | 86 | 1016.6 |
| 20260505072854 | 8 | 292 | 0.0 | 0.0 | 0.00 | 0.00 | 0.00 | 86 | 1016.6 |
| 20260505072335 | 8 | 292 | 0.0 | 0.0 | 0.00 | 0.00 | 0.00 | 87 | 1016.6 |
| 20260505071817 | 8 | 292 | 0.0 | 0.0 | 0.00 | 0.00 | 0.00 | 88 | 1016.6 |
| 20260505071258 | 7 | 292 | 0.0 | 0.0 | 0.00 | 0.00 | 0.00 | 89 | 1016.8 |
| 20260505070739 | 7 | 292 | 0.0 | 0.0 | 0.00 | 0.00 | 0.00 | 90 | 1016.8 |
| 20260505070221 | 7 | 292 | 0.0 | 0.0 | 0.00 | 0.00 | 0.00 | 90 | 1016.8 |
| 20260505065702 | 7 | 292 | 0.0 | 0.0 | 0.00 | 0.00 | 0.00 | 93 | 1016.9 |
| 20260505065143 | 6 | 292 | 0.0 | 0.0 | 0.00 | 0.00 | 0.00 | 93 | 1017.0 |
| 20260505064625 | 6 | 292 | 0.0 | 0.0 | 0.00 | 0.00 | 0.00 | 94 | 1017.0 |
| 20260505064106 | 5 | 292 | 0.0 | 0.0 | 0.00 | 0.00 | 0.00 | 94 | 1017.0 |
| 20260505063548 | 5 | 292 | 0.0 | 0.0 | 0.00 | 0.00 | 0.00 | 94 | 1017.0 |
| 20260505063029 | 5 | 292 | 0.0 | 0.0 | 0.00 | 0.00 | 0.00 | 94 | 1017.0 |
| 20260505062511 | 5 | 292 | 0.0 | 0.0 | 0.00 | 0.00 | 0.00 | 95 | 1017.0 |
| 20260505061953 | 4 | 292 | 0.0 | 0.0 | 0.00 | 0.00 | 0.00 | 95 | 1017.0 |
| 20260505061434 | 4 | 292 | 0.0 | 0.0 | 0.00 | 0.00 | 0.00 | 95 | 1016.9 |
| 20260505060641 | 5 | 292 | 0.0 | 0.0 | 0.00 | 0.00 | 0.00 | 95 | 1016.9 |
| 20260505060123 | 4 | 292 | 0.0 | 0.0 | 0.00 | 0.00 | 0.00 | 95 | 1016.8 |
| 20260505055604 | 4 | 292 | 0.0 | 0.0 | 0.00 | 0.00 | 0.00 | 95 | 1016.9 |
| 20260505055046 | 3 | 292 | 0.0 | 0.0 | 0.00 | 0.00 | 0.00 | 95 | 1016.9 |
| 20260505054527 | 3 | 292 | 0.0 | 0.0 | 0.00 | 0.00 | 0.00 | 96 | 1016.8 |
| 20260505054008 | 3 | 292 | 0.0 | 0.0 | 0.00 | 0.00 | 0.00 | 96 | 1016.8 |
| 20260505053450 | 3 | 292 | 0.0 | 0.0 | 0.00 | 0.00 | 0.00 | 96 | 1016.8 |
| 20260505052931 | 3 | 292 | 0.0 | 0.0 | 0.00 | 0.00 | 0.00 | 96 | 1016.8 |
| 20260505052413 | 3 | 292 | 0.0 | 0.0 | 0.00 | 0.00 | 0.00 | 97 | 1016.8 |